www.pogodaiklimat.ru

Погода и климат >> Архив погоды >> Таиланд >> Чаванг


ПОГОДА в Чаванге

  • Прогноз погоды в Чаванге
  • Монитор погоды в Чаванге

АРХИВ ПОГОДЫ в Чаванге

Время (UTC), дата Ветер
(напр.,м/с)
 
Видим.   Явления Облачность Т
(С)
Тd
(С)
f
(%)
Тe
(С)
Тes
(С)
Комфортность P
(гПа)
Po
(гПа)
Тmin
(С)
Tmax
(С)
R
(мм)
R24
(мм)
S
(см)
18 16.01 Ю 2 7000 м дымка 8/4 600 м
[Cu med, cong Cs]
+24.0 +23.3 96 +32 +32 очень
душно
1011.0 1007.5
21 16.01 штиль 0 6000 м дымка 3/3 600 м
[Sc Ci fib]
+23.4 +22.8 96 +33 +33 очень
душно
1009.9 1006.4
00 17.01 штиль 0 8000 м осадки на расстоянии 6/3 600 м
[Cu med, cong Cs]
+23.4 +22.5 95 +32 +33 очень
душно
1010.6 1007.0 +23.0
03 17.01 штиль 0 8000 м дымка {дождь} 8/3 300 м
[Cu Sc Cs]
+27.0 +24.8 88 +39 +47 очень
душно
1011.5 1008.0 2
06 17.01 штиль 0 8000 м в посл. час дождь 8/4 300 м
[Cu Sc Cs]
+28.7 +24.1 76 +40 +51 опасность
солнечного
удара
1010.2 1006.8 0.2
09 17.01 штиль 0 7000 м в посл. час дождь 8/3 300 м
[Cu Sc Cs]
+28.5 +24.9 81 +41 +45 опасность
перегрева
1008.6 1005.1 0.9
12 17.01 штиль 0 8000 м дымка 8/3 300 м
[Cu Sc Cs]
+26.4 +24.8 91 +38 +38 очень
душно
1009.3 1005.9 +29.5 3
15 17.01 штиль 0 7000 м дымка 8/3 300 м
[Cu Sc Cs]
+24.7 +23.7 94 +34 +34 очень
душно
1011.0 1007.4
18 17.01 штиль 0 6000 м дымка 8/3 300 м
[Cu Sc Cs]
+24.0 +23.3 96 +32 +32 очень
душно
1009.6 1006.1
21 17.01 штиль 0 6000 м дымка 8/3 300 м
[Cu Sc Cs]
+24.0 +23.3 96 +32 +32 очень
душно
1009.6 1006.1
00 18.01 штиль 0 6000 м дымка 8/3 300 м
[Cu Sc Cs]
+22.7 +22.4 98 +31 +31 очень
душно
1010.7 1007.2 +22.5
03 18.01 штиль 0 10 км 8/6 600 м
[Cu Sc Cs]
+28.0 +23.2 75 +38 +43 очень
душно
1011.6 1008.1
06 18.01 ЮВ 4 12 км 8/5 600 м
[Cu Sc Cs]
+31.2 +22.9 61 +41 +46 опасность
перегрева
1010.2 1006.8
09 18.01 ЮВ 5 12 км 8/5 600 м
[Cu Sc Cs]
+31.0 +21.7 58 +39 +41 очень
душно
1009.0 1005.6
12 18.01 штиль 0 10 км 8/3 600 м
[Cu med, cong Cs]
+27.5 +21.5 70 +35 +35 очень
душно
1010.3 1006.9 +32.0
15 18.01 штиль 0 10 км 8/3 600 м
[Cu med, cong Cs]
+25.0 +21.2 79 +32 +32 очень
душно
1012.1 1008.6
18 18.01 штиль 0 10 км 8/3 600 м
[Cu med, cong Cs]
+25.0 +22.8 88 +33 +33 очень
душно
1011.1 1007.6
21 18.01 штиль 0 10 км 8/3 600 м
[Cu med, cong Cs]
+24.5 +23.0 91 +32 +32 очень
душно
1010.0 1006.5
00 19.01 штиль 0 8000 м дымка 8/3 600 м
[Cu hum Cs]
+23.2 +22.3 95 +32 +32 очень
душно
1010.3 1006.8 +23.0
03 19.01 штиль 0 12 км 5/3 600 м
[Cu hum Ci fib]
+30.0 +23.0 66 +40 +50 очень
душно
1011.4 1008.0
06 19.01 штиль 0 12 км 5/3 600 м
[Cu hum Ci fib]
+33.0 +22.0 52 +41 +56 опасность
перегрева
1010.0 1006.6
09 19.01 штиль 0 12 км 5/3 600 м
[Cu hum Ci fib]
+31.5 +21.1 54 +39 +44 очень
душно
1008.8 1005.3
12 19.01 штиль 0 10 км 3/0
[Ci fib]
+27.5 +22.3 73 +36 +36 очень
душно
1010.6 1007.1 +34.0
15 19.01 штиль 0 10 км 3/0
[Ci fib]
+24.5 +21.5 83 +31 +31 очень
душно
1012.4 1008.8
18 19.01 штиль 0 10 км 3/0
[Ci fib]
+23.5 +22.0 91 +30 +30 очень
душно
1011.3 1007.8
21 19.01 штиль 0 10 км 3/0
[Ci fib]
+23.0 +21.8 93 +31 +31 очень
душно
1010.1 1006.6
00 20.01 штиль 0 8000 м дымка 3/0
[Ci fib]
+22.2 +21.1 93 +29 +29 очень
душно
1011.4 1007.9 +22.0
03 20.01 штиль 0 12 км 3/0
[Ci fib]
+30.2 +22.1 62 +39 +53 опасность
солнечного
удара
1012.4 1009.0
06 20.01 Ю 4 12 км 5/3 600 м
[Cu med, cong Ci fib]
+34.0 +21.5 48 +42 +49 опасность
перегрева
1010.6 1007.2
09 20.01 штиль 0 12 км 5/3 600 м
[Cu med, cong Ci fib]
+32.0 +19.6 48 +38 +43 очень
душно
1008.9 1005.5
12 20.01 штиль 0 10 км 3/0
[Ci fib]
+27.5 +22.3 73 +36 +36 очень
душно
1010.3 1006.8 +34.0
15 20.01 штиль 0 10 км 3/0
[Ci fib]
+24.5 +21.5 83 +31 +31 очень
душно
1012.7 1009.1
18 20.01 штиль 0 10 км 3/0
[Ci fib]
+23.5 +22.0 91 +30 +30 очень
душно
1012.3 1008.8
21 20.01 штиль 0 10 км 3/0
[Ci fib]
+23.0 +22.2 95 +31 +31 очень
душно
1011.5 1008.0
00 21.01 штиль 0 8000 м дымка 3/0
[Ci fib]
+22.2 +21.9 98 +29 +30 очень
душно
1012.5 1009.0 +22.0
03 21.01 штиль 0 10 км 4/3 600 м
[Sc Cs]
+29.5 +23.7 71 +40 +51 опасность
солнечного
удара
1013.7 1010.3
06 21.01 штиль 0 10 км 6/3 300 м
[Cu Sc Cs]
+32.3 +22.4 56 +42 +56 опасность
перегрева
1011.9 1008.4
09 21.01 З 2 10 км 6/3 300 м
[Cu Sc Cs]
+31.5 +24.4 66 +44 +47 опасность
перегрева
1009.8 1006.4
12 21.01 штиль 0 8000 м дымка {дождь} 6/3 300 м
[Cu Sc Cs]
+27.0 +24.8 88 +39 +39 очень
душно
1010.8 1007.4 +33.0 0.7
15 21.01 штиль 0 7000 м дымка 6/3 300 м
[Cu Sc Cs]
+25.0 +24.3 96 +35 +35 очень
душно
1012.9 1009.4
18 21.01 штиль 0 6000 м дымка 5/3 300 м
[Cu Sc Cs]
+24.0 +23.3 96 +32 +32 очень
душно
1012.7 1009.2
21 21.01 штиль 0 5000 м дымка 4/3 600 м
[Sc Cs]
+23.5 +22.8 96 +31 +31 очень
душно
1012.5 1009.0
00 22.01 штиль 0 2000 м дымка 8/3 600 м
[Cu Sc Cs]
+23.0 +22.5 97 +32 +32 очень
душно
1012.9 1009.4 +22.8
03 22.01 ЮВ 3 8000 м дымка 4/1 600 м
[Cu hum Cs]
+29.0 +23.5 72 +39 +47 очень
душно
1013.9 1010.5
06 22.01 штиль 0 10 км 6/3 600 м
[Cu hum Cs]
+32.5 +23.1 58 +43 +58 опасность
перегрева
1010.3 1006.9
09 22.01 СВ 3 10 км 6/3 600 м
[Cu Sc Cs]
+31.3 +22.0 58 +40 +43 очень
душно
1009.7 1006.3
12 22.01 штиль 0 10 км 6/3 300 м
[Cu Sc Cs]
+27.5 +24.6 84 +39 +39 очень
душно
1011.7 1008.2 +32.8
15 22.01 штиль 0 8000 м дымка 6/3 600 м
[Cu Sc Cs]
+25.3 +23.7 91 +34 +34 очень
душно
1013.3 1009.8
18 22.01 штиль 0 7000 м дымка 6/3 600 м
[Cu Sc Cs]
+24.0 +23.0 94 +32 +32 очень
душно
1012.5 1009.0
21 22.01 штиль 0 5000 м дымка 4/3 600 м
[Sc Cs]
+22.8 +22.3 97 +31 +31 очень
душно
1011.5 1008.0
00 23.01 штиль 0 6000 м дымка 4/3 600 м
[Cu hum Cs]
+22.7 +22.2 97 +31 +31 очень
душно
1012.7 1009.1 +22.3
03 23.01 штиль 0 12 км 3/1 600 м
[Cu hum Ci fib]
+29.0 +23.2 71 +39 +52 опасность
солнечного
удара
1013.2 1009.7
06 23.01 В 4 12 км 6/3 600 м
[Cu med, cong Cs]
+33.0 +21.7 52 +41 +49 опасность
перегрева
1011.5 1008.1
09 23.01 В 8 12 км 4/3 600 м
[Cu med, cong Cs]
+32.0 +21.3 53 +40 +40 очень
душно
1009.3 1005.9
12 23.01 штиль 0 10 км 3/1 600 м
[Cu med, cong Ci fib]
+27.8 +23.7 78 +38 +38 очень
душно
1010.9 1007.4 +33.7

 

Местоположение метеостанции Чаванг (Таиланд): широта 8.43 долгота 99.50 высота над уровнем моря 30 м.

В архиве по умолчанию представлена погода в Чаванге за последнюю неделю. Архивные данные за месяц целиком и за предыдущие месяцы, начиная с января 2011 года, Вы можете получить, выбрав интересующий диапазон дат из раскрывающегося списка и нажав кнопку "Ввод!".


*Определитесь, кто Вы:
робот инопланетянин человек

Внимание! Время в таблицах - всемирное. Для получения местного времени необходимо прибавить поправку, которая равна 7 ч.

Смотрите также архив погоды в соседних городах и на ближайших метеорологических станциях:

Погода в Прасанге (Таиланд) (32 км)
Погода в Накхонситхаммарате 2 (Таиланд) (51 км)
Погода в Накхонситхаммарате (Таиланд) (69 км)
Погода в Краби (Таиланд) (75 км)
Погода в Сураттхани Агромете (Таиланд) (76 км)
Погода в Сураттхани (Таиланд) (86 км)
Погода в Транге (Таиланд) (102 км)
Погода на Ко Ланта (Таиланд) (112 км)
Погода в Пхаттхалунг Агромете (Таиланд) (120 км)
Погода в Самуи (Таиланд) (131 км)

Пояснения к столбцам:

Ветер - указаны скорость ветра в м/с - средняя за 10 мин, порывы в срок и между сроками (в фигурных скобках) и направление, откуда дует ветер: С - северный, СВ - северо-восточный, В - восточный, ЮВ - юго-восточный, Ю - южный, ЮЗ - юго-западный, З - западный, СЗ - северо-западный.
Видимость - горизонтальная дальность видимости в метрах или километрах. При видимости от 1 до 10 км при отсутствии осадков обычно наблюдается дымка, при ухудшении видимости до 1 км и менее - туман. В сухую погоду видимость может ухудшаться дымом, пылью или мглою.
Явления - указаны атмосферные явления, наблюдавшиеся в срок или в последний час перед сроком; фигурными скобками обозначены явления, наблюдавшиеся между сроками (за 1-3 часа до срока); квадратными скобками обозначены град или гололедные отложения с указанием их диаметра в мм.
Облачность - указаны через наклонную черту общая и нижняя облачность в баллах и высота нижней границы облаков в метрах; квадратными скобками обозначены формы облаков: Ci - перистые, Cs - перисто-слоистые, Cc - перисто-кучевые, Ac - высококучевые, As - высокослоистые, Sc - слоисто-кучевые, Ns - слоисто-дождевые, Cu - кучевые, Cb - кучево-дождевые. Подробнее классификацию облаков см. в Атласе облаков (PDF).
T - Температура воздуха - температура, измеренная на высоте 2 м над землей.
Td - Температура точки росы - температура, при понижении до которой содержащийся в воздухе водяной пар достигнет насыщения.
f - Относительная влажность воздуха - влажноcть воздуха, измеренная на высоте 2 м над землей.
Te - Эффективная температура - температура, которую ощущает одетый по сезону человек в тени. Характеристика душности погоды. При расчете учитывается влияние влажности воздуха и скорости ветра на теплоощущения человека.
Tes - Эффективная температура на солнце - температура, которую ощущает человек, с поправкой на солнечный нагрев. Характеристика знойности погоды. Зависит от высоты солнца над горизонтом, облачности и скорости ветра. Ночью, в пасмурную погоду, а также при ветре 12 м/с и более поправка равна нулю.
P - Атмосферное давление - приведенное к уровню моря атмосферное давление.
Po - Атмосферное давление - измеренное на уровне метеостанции атмосферное давление.
Tmin - Минимальная температура - минимум температуры воздуха на высоте 2 м над землей.
Tmax - Максимальная температура - максимум температуры воздуха на высоте 2 м над землей.
R - Количество осадков - Количество выпавших осадков за период времени, мм. При наведении курсора мыши на число - период времени, за который выпало указанное количество осадков.
R24 - Количество осадков - Количество выпавших осадков за 24 часа, мм.
S - Снежный покров - Высота снежного покрова, см. При наведении курсора мыши на число - состояние снежного покрова и степень покрытия местности в баллах.